Theta_e
324 326 327 328 327 325 328 334 346 349 347 344 345 343 346 344 349 348 346 346 345 347 349 348 349 352 355 354 355 354 356 355
324 327 327 326 326 332 330 338 352 352 353 350 347 345 350 347 344 346 345 345 345 343 346 349 349 352 354 353 355 355 356 355
324 324 325 326 330 331 330 332 339 351 349 342 346 345 349 346 344 340 345 344 347 347 346 348 351 355 354 356 352 339 353 357
319 321 324 325 324 330 332 335 344 346 347 341 343 342 344 344 346 342 341 342 345 346 349 352 355 357 357 356 347 355 358 358
321 320 329 328 331 326 324 336 343 348 340 339 342 344 348 347 346 342 342 343 344 348 347 342 352 352 347 355 357 354 345 343
322 321 333 335 335 333 327 329 339 337 335 343 345 346 345 345 346 341 342 346 351 349 349 346 348 348 346 344 343 344 342 341
323 329 335 334 335 333 334 338 338 336 338 344 344 346 344 344 342 345 348 356 352 348 346 345 344 343 342 342 341 341 341 341
332 333 332 331 330 332 342 342 343 342 344 344 344 341 343 344 342 346 347 354 349 347 345 345 342 342 342 343 342 341 341 341
319 329 331 332 342 342 340 340 341 342 339 339 341 343 341 344 343 345 346 352 349 348 345 344 343 342 343 342 341 341 340 340
318 323 328 329 341 342 345 346 344 342 342 340 340 340 339 338 340 343 346 350 349 347 346 344 343 342 342 341 341 339 339 340
325 323 327 343 340 344 344 346 346 346 343 341 340 340 340 336 337 340 348 347 347 347 344 343 342 341 341 340 338 339 337 336
333 333 330 337 343 340 341 347 342 344 344 340 343 343 338 337 342 344 345 344 346 346 344 340 340 338 338 337 336 335 333 331
341 347 344 343 342 340 347 343 340 342 344 344 342 341 341 339 338 343 342 335 334 341 340 339 336 336 336 334 333 332 331 330
345 346 349 342 339 337 336 335 337 339 341 344 344 340 346 345 340 343 345 340 340 338 336 335 336 336 333 331 331 330 329 328
346 343 337 341 341 339 331 332 333 337 343 342 341 347 346 347 346 345 342 340 337 335 334 335 335 334 331 329 329 328 327 326
344 341 342 339 337 334 333 334 332 333 337 346 345 344 341 341 340 339 338 338 335 332 331 332 332 332 330 328 327 325 325 325
344 342 341 340 337 335 334 334 334 334 333 345 343 341 339 338 337 337 337 336 333 331 330 329 329 328 327 326 324 324 324 325
344 340 337 338 335 334 331 332 332 335 345 343 342 341 339 338 337 336 334 334 331 330 329 328 328 327 324 322 322 324 325 324
338 336 336 333 331 333 331 337 336 335 342 342 341 340 338 335 333 333 332 332 330 330 329 328 326 325 325 325 325 324 323 322
Wind_Speed
4 5 10 4 2 6 6 3 4 4 5 7 6 6 7 1 15 15 13 12 13 12 18 19 22 26 25 25 24 23 21 18
8 1 3 8 5 2 3 4 2 4 4 5 5 3 1 6 5 13 15 14 12 13 20 25 26 28 23 22 22 19 18 17
3 4 9 2 3 5 5 5 6 2 6 7 9 8 8 3 3 2 13 14 14 13 24 27 24 25 26 24 18 13 20 15
13 7 6 8 10 7 5 5 2 3 5 7 11 13 12 10 4 3 4 10 13 15 22 22 24 23 24 23 19 8 11 12
12 8 5 3 5 4 3 4 8 7 5 7 8 5 7 9 8 5 1 2 10 13 22 26 29 24 10 18 19 19 19 14
11 8 3 4 4 4 7 4 4 8 9 4 8 9 6 7 10 8 7 5 8 11 11 17 26 28 27 22 24 23 22 18
4 7 5 4 6 6 4 5 6 5 7 5 9 12 11 7 11 7 9 12 6 12 13 25 16 16 24 27 26 24 19 15
5 4 7 5 6 5 3 4 4 8 7 9 11 6 7 11 10 6 7 13 13 2 24 28 37 26 24 26 26 23 18 13
6 3 3 5 4 7 5 6 7 1 6 7 8 16 14 13 15 9 8 14 17 8 10 26 36 35 26 24 20 17 15 12
4 4 1 5 2 9 14 9 5 4 6 5 8 5 5 4 5 11 7 7 13 13 14 17 30 34 26 21 19 16 15 15
2 4 1 2 7 4 3 3 8 4 5 3 2 6 4 9 5 6 8 11 13 6 17 22 35 37 29 24 20 23 18 14
3 0 6 3 1 6 4 4 3 4 4 4 4 2 4 6 5 7 20 19 17 13 17 25 34 32 30 28 24 20 14 10
2 3 4 2 3 2 4 6 5 3 7 8 6 6 6 6 10 13 18 23 24 28 28 28 28 29 28 23 19 15 12 10
3 2 3 4 3 5 5 2 4 5 8 7 7 6 3 13 18 14 24 30 26 21 19 24 26 25 22 20 16 13 10 8
1 3 5 4 3 2 4 5 4 2 3 7 7 2 6 11 18 15 22 23 24 25 26 23 21 23 21 17 14 12 8 7
5 13 7 3 2 4 6 4 6 8 6 8 4 4 5 11 12 13 21 22 21 23 22 22 22 20 19 16 10 10 10 7
5 5 4 4 5 6 9 9 12 12 9 14 12 11 7 9 8 14 18 20 23 23 21 24 23 20 15 12 11 11 9 6
4 1 4 5 6 6 7 7 8 5 10 13 15 16 13 12 15 17 18 23 21 21 26 26 22 18 12 9 9 10 7 5
4 4 4 6 7 12 8 12 12 7 9 17 13 24 21 10 16 21 21 22 23 25 27 22 17 15 12 10 9 7 5 3
Wind_Direction
238 206 153 234 164 176 129 72 81 280 288 305 316 316 279 295 149 178 179 173 182 181 182 185 185 193 189 195 200 203 211 220
290 121 290 150 168 63 8 118 157 248 265 237 246 152 320 32 134 182 170 174 178 173 180 186 195 195 191 200 205 207 204 219
111 211 218 241 117 63 121 146 166 166 262 208 203 144 138 85 347 107 186 175 177 181 185 194 193 179 191 199 207 190 196 215
233 251 228 198 187 149 131 244 56 134 268 184 193 152 156 186 136 37 35 189 178 172 145 153 151 164 185 201 207 203 178 168
296 345 5 159 110 157 93 83 187 155 251 91 128 142 163 146 181 165 255 10 185 144 149 139 135 137 184 194 176 155 150 147
224 210 175 304 150 188 132 130 192 207 232 126 148 156 210 228 213 154 105 114 182 130 139 123 144 160 182 174 157 146 137 129
235 181 177 237 256 249 128 200 165 229 189 72 194 178 197 235 238 146 110 118 121 133 116 116 108 145 161 165 150 143 135 129
177 262 210 245 247 252 130 113 47 152 199 173 164 194 210 218 214 180 123 126 124 196 145 146 151 174 155 144 142 142 133 130
238 191 36 316 336 297 170 99 126 285 252 149 188 200 214 214 204 176 146 136 134 140 249 155 149 159 154 144 141 130 133 137
232 81 196 227 324 34 96 47 63 63 4 342 335 352 358 333 216 135 107 107 135 128 207 168 145 147 150 150 142 140 137 134
94 152 218 48 357 21 82 1 353 32 318 244 143 121 238 88 34 101 91 82 58 103 214 178 150 149 153 152 146 139 133 128
65 83 212 152 205 352 355 22 294 206 172 105 12 45 337 90 118 98 81 70 99 240 244 172 151 147 146 139 136 133 132 126
323 137 268 230 209 221 164 202 250 211 176 168 181 182 192 170 190 130 127 136 188 233 198 155 145 145 133 134 125 127 127 125
335 72 195 330 357 153 219 99 262 268 226 173 173 213 233 192 160 173 164 184 190 179 149 140 141 136 133 125 129 129 131 119
13 299 251 264 238 277 174 151 195 287 120 256 217 108 128 146 156 153 154 159 156 146 132 136 144 146 132 134 140 133 129 123
83 247 265 292 213 210 221 225 259 180 197 188 219 130 131 133 137 141 146 145 143 136 131 133 143 145 142 143 141 136 134 140
237 260 314 43 271 253 235 238 260 269 185 158 144 134 145 120 119 128 137 145 149 142 137 141 144 136 139 139 146 135 130 129
209 186 182 240 298 330 10 6 346 48 124 152 156 152 153 151 155 156 153 153 147 142 138 147 143 141 131 122 135 139 127 136
205 238 179 311 25 18 21 5 347 324 168 158 169 156 163 159 156 152 141 141 141 147 148 147 137 127 129 126 135 128 110 115